Location: San Gennaro Vesuviano
(40.8833°N, 14.5333°E)
Time: 22:33:41
(UTC+00:00)

Spot 2 Rocket - Pass Details

Date: 22 April 2021
Orbit: 756 x 773 km, 98.5° (Epoch: 10 May)

Event Time Altitude Azimuth Distance (km) Brightness Sun altitude
Exits shadow 20:32:07 77° 228° (SW) 790 3.4 -26.6°
Maximum altitude 20:32:18 79° 257° (WSW) 786 3.4 -26.6°
Drops below altitude 10° 20:37:24 10° 344° (NNW) 2,307 6.8 -27.2°
Sets 20:39:42 0° 346° (NNW) 3,235 7.7 -27.5°
